Weather in Nikolo-Shanga

Russia / Kostroma Oblast     58°27′07″N   45°32′22″E
temp.,
°C
wind,
m/s
gust,
m/s
humid.,
%
clouds,
%
prec.,
mm/h
press.,
hPa
HPBL,
m
8 march, mon
mon800:00−8ese3995100 1.0 991446
03:00−8ene3696100 1.8 990244
06:00−9ne2596100 1.0 990219
09:00−9nne3595100 1.9 992339
12:00−7nne2393100 0.2 995477
15:00−7n3494100 0.6 997500
18:00−10n389499 0.3 999372
21:00−12n3994100 0.4 1003470
9 march, tue
tue900:00−14n389491 0.1 1005333
03:00−19nnw379785 0.1 1008155
06:00−20n389789 0.0 1010219
09:00−20n369680 0.0 1012276
12:00−16n359383 0.0 1013469
15:00−14n469192 0.1 1014612
18:00−18n3994100 0.1 1016351
21:00−22n399597 0.1 1019317
10 march, wed
wed1000:00−27n399634 0.0 1020191
03:00−29n389717 0.0 1022170
06:00−30n36980 0.0 1023108
09:00−25n35960 0.0 1024254
12:00−18nnw25896 0.0 1024516
15:00−15nnw358522 0.0 1023735
18:00−19nw2396100 0.0 102463
21:00−22nw259891 0.0 102588
11 march, thu
thu1100:00−24nw239835 0.0 102573
03:00−24wnw369819 0.0 1025119
06:00−18nw4109578 0.0 1025288
09:00−15nw489182 0.0 1026304
12:00−9nw488527 0.0 1026486
15:00−6nw488015 0.0 1026745
18:00−11wnw36890 0.0 1026126
21:00−14wnw36920 0.0 1027123
12 march, fri
fri1200:00−16w36950 0.0 1027113
03:00−18wsw38970 0.0 1027139
06:00−19wsw38970 0.0 1027179
09:00−15wsw489335 0.0 1027316
12:00−10wsw4986100 0.0 1027531
15:00−8wsw4985100 0.0 1026648
18:00−12sw369151 0.0 1026118
21:00−14sw3119326 0.0 1027277